Volver al catálogo

FENGYUN 1C DEB

ActivoSSO
NORAD 30472·DEBRIS·🇨🇳 China

Lanzado May 10, 1999 desde Taiyuan Satellite Launch Center

Loading…

Próximos Pases (próximas 24 horas)

TLE

ActualizadoSource: Space-Track

Época: Sep 14, 2026, 06:46 UTC

1 30472U 99025AGK 26257.28213402  .00005361  00000-0  11497-2 0  9994
2 30472  98.6609  13.7880 0033818 314.6990  75.3383 14.58738212 20471

Sigue FENGYUN 1C DEB en tiempo real con AllMySat

Download on the App Store